Tracking 32579 objects as of 15-Dec-2025
HD Live streaming from Space Station
objects crossing your sky now

STARLINK-35485

Track STARLINK-35485 now!
10-day predictions
STARLINK-35485 is classified as:


NORAD ID: 66251
Int'l Code: 2025-245T
Perigee: 453.4 km
Apogee: 455.5 km
Inclination: 53.2 °
Period: 93.5 minutes
Semi major axis: 6825 km
RCS: Unknown
Launch date: October 29, 2025
Source: United States (US)
Launch site: AIR FORCE EASTERN TEST RANGE (AFETR)
Your satellite tracking list
Your tracking list is empty




NASA's NSSDC Master Catalog

Two Line Element Set (TLE):
1 66251U 25245T   25347.66679398  .00027693  00000-0  70060-3 0  9996
2 66251  53.1603 324.9087 0001511  93.6986 337.8596 15.39584108  6003
Source of the keplerian elements: AFSPC